Juneau, WI

10:43 AM CST on February 19, 2017 (GMT -0600)
Dodge County

Weather History for KUNU - January, 2014

Change the Weather History Date:

Monday, January 27, 2014

  Actual Average Record
Temperature  
Mean Temperature -5 °F -  
Max Temperature 2 °F 24 °F 123 °F (1999)
Min Temperature -13 °F 14 °F -17 °F (1988)
Degree Days  
Heating Degree Days 70    
Moisture  
Dew Point -20 °F    
Average Humidity 51    
Maximum Humidity 68    
Minimum Humidity 39    
Precipitation  
Precipitation 0.00 in - - ()
Sea Level Pressure  
Sea Level Pressure 30.16 in    
Wind  
Wind Speed 11 mph (West)    
Max Wind Speed 14 mph    
Max Gust Speed 24 mph    
Visibility 10 miles    
Events Snow    
Averages and records for this station are not official NWS values.
T = Trace of Precipitation, MM = Missing Value Source: NWS Daily Summary

Daily Weather History Graph

Daily Weather History Graph

Search for Another Location

Airport or City:

Trip Planner

Search our weather history database for the weather conditions in past years. The results will help you decide how hot, cold, wet, or windy it might be!

Date:

Astronomy

Jan. 27, 2014 Rise Set
Actual Time 7:15 AM CST 4:59 PM CST
Civil Twilight 6:45 AM CST 5:30 PM CST
Nautical Twilight 6:10 AM CST 6:05 PM CST
Astronomical Twilight 5:36 AM CST 6:38 PM CST
Moon 3:58 AM CST (1/27) 1:44 PM CST (1/27)
Length of Visible Light 10h 45m
Length of Day
9h 43m
Waning Crescent, 14% of the Moon is Illuminated
Jan 27
Waning Crescent
Jan 30
New
Feb 6
First Quarter
Feb 14
Full
Feb 22
Last Quarter

Hourly Weather History & Observations

Time (CST) Temp. Windchill Dew Point Humidity Pressure Visibility Wind Dir Wind Speed Gust Speed Precip Events Conditions
12:15 AM 2.7 °F -14.5 °F -5.8 °F 68% 29.79 in 5.0 mi West 12.7 mph 20.7 mph N/A   Haze
12:35 AM 2.1 °F -14.4 °F -6.3 °F 68% 29.80 in 7.0 mi West 11.5 mph 20.7 mph N/A   Mostly Cloudy
12:55 AM 1.6 °F -15.1 °F -7.2 °F 67% 29.82 in 10.0 mi West 11.5 mph 18.4 mph N/A   Scattered Clouds
1:15 AM 1.2 °F -16.4 °F -8.0 °F 65% 29.83 in 10.0 mi WNW 12.7 mph 23.0 mph N/A   Clear
1:35 AM 1.2 °F -15.6 °F -9.2 °F 62% 29.85 in 10.0 mi West 11.5 mph 21.9 mph N/A   Clear
1:55 AM 0.5 °F -15.6 °F -11.2 °F 58% 29.88 in 10.0 mi West 10.4 mph 19.6 mph N/A   Clear
2:15 AM 0.1 °F -16.9 °F -12.1 °F 56% 29.89 in 10.0 mi WNW 11.5 mph 18.4 mph N/A   Clear
2:35 AM -0.4 °F -16.7 °F -13.9 °F 53% 29.91 in 10.0 mi West 10.4 mph 24.2 mph N/A   Clear
2:55 AM -0.9 °F -16.4 °F -13.7 °F 55% 29.93 in 10.0 mi West 9.2 mph 18.4 mph N/A   Clear
3:15 AM -1.3 °F -18.7 °F -13.9 °F 55% 29.94 in 10.0 mi West 11.5 mph 17.3 mph N/A   Clear
3:35 AM -1.3 °F -18.7 °F -12.5 °F 59% 29.96 in 10.0 mi West 11.5 mph 18.4 mph N/A   Mostly Cloudy
3:55 AM -1.8 °F -18.5 °F -12.3 °F 61% 29.97 in 10.0 mi West 10.4 mph 17.3 mph N/A   Mostly Cloudy
4:15 AM -2.9 °F -17.7 °F -14.8 °F 57% 29.99 in 10.0 mi West 8.1 mph 17.3 mph N/A   Scattered Clouds
4:35 AM -3.6 °F -20.7 °F -15.2 °F 58% 30.00 in 10.0 mi West 10.4 mph 18.4 mph N/A   Clear
4:55 AM -4.2 °F -22.3 °F -16.1 °F 57% 30.02 in 10.0 mi West 11.5 mph - N/A   Clear
5:15 AM -4.5 °F -20.8 °F -17.3 °F 54% 30.03 in 10.0 mi West 9.2 mph 16.1 mph N/A   Clear
5:35 AM -4.9 °F -21.3 °F -17.7 °F 54% 30.04 in 10.0 mi West 9.2 mph - N/A   Clear
5:55 AM -5.3 °F -19.3 °F -17.5 °F 56% 30.04 in 10.0 mi West 6.9 mph - N/A   Clear
6:15 AM -5.8 °F -23.4 °F -16.2 °F 61% 30.05 in 10.0 mi West 10.4 mph - N/A   Clear
6:35 AM -6.2 °F -22.8 °F -16.6 °F 61% 30.07 in 10.0 mi West 9.2 mph - N/A   Clear
6:55 AM -6.7 °F -24.5 °F -16.6 °F 62% 30.08 in 10.0 mi West 10.4 mph 20.7 mph N/A   Clear
7:15 AM -6.9 °F -23.7 °F -17.5 °F 60% 30.09 in 10.0 mi West 9.2 mph 17.3 mph N/A   Clear
7:35 AM -7.4 °F -26.4 °F -19.7 °F 55% 30.10 in 10.0 mi West 11.5 mph 20.7 mph N/A   Clear
7:55 AM -7.6 °F -25.7 °F -19.8 °F 55% 30.12 in 10.0 mi West 10.4 mph 18.4 mph N/A   Clear
8:15 AM -7.8 °F -25.9 °F -19.3 °F 57% 30.12 in 10.0 mi WNW 10.4 mph 16.1 mph N/A   Clear
8:35 AM -8.0 °F -25.0 °F -20.7 °F 54% 30.14 in 10.0 mi WNW 9.2 mph 19.6 mph N/A   Clear
8:55 AM -8.0 °F -28.0 °F -20.0 °F 56% 30.15 in 10.0 mi West 12.7 mph 18.4 mph N/A   Clear
9:15 AM -8.0 °F -26.1 °F -19.5 °F 57% 30.16 in 7.0 mi West 10.4 mph 16.1 mph N/A   Scattered Clouds
9:35 AM -8.5 °F -26.8 °F -20.0 °F 57% 30.17 in 3.0 mi West 10.4 mph 20.7 mph N/A   Haze
9:55 AM -8.5 °F -25.7 °F -22.0 °F 52% 30.18 in 7.0 mi West 9.2 mph 17.3 mph N/A Snow Light Snow
10:15 AM -8.5 °F -26.8 °F -22.9 °F 49% 30.19 in 4.0 mi West 10.4 mph 19.6 mph N/A Snow Light Snow
10:35 AM -8.5 °F -26.8 °F -24.3 °F 46% 30.19 in 5.0 mi WNW 10.4 mph 19.6 mph N/A   Haze
10:55 AM -8.5 °F -28.6 °F -23.3 °F 49% 30.20 in 7.0 mi West 12.7 mph 19.6 mph N/A   Clear
11:15 AM -8.5 °F -28.6 °F -23.4 °F 48% 30.20 in 10.0 mi West 12.7 mph 19.6 mph N/A   Clear
11:35 AM -8.3 °F -29.2 °F -23.8 °F 47% 30.20 in 7.0 mi West 13.8 mph 21.9 mph N/A   Clear
11:55 AM -7.8 °F -25.9 °F -23.8 °F 46% 30.21 in 10.0 mi West 10.4 mph 21.9 mph N/A   Clear
12:15 PM -6.9 °F -27.4 °F -23.1 °F 45% 30.21 in 10.0 mi West 13.8 mph 18.4 mph N/A   Clear
12:35 PM -7.1 °F -25.9 °F -23.8 °F 44% 30.21 in 10.0 mi West 11.5 mph 19.6 mph N/A   Clear
12:55 PM -6.7 °F -26.4 °F -23.8 °F 43% 30.21 in 10.0 mi West 12.7 mph 19.6 mph N/A   Clear
1:15 PM -6.2 °F -25.7 °F -23.8 °F 42% 30.21 in 10.0 mi West 12.7 mph 18.4 mph N/A   Clear
1:35 PM -6.3 °F -23.1 °F -24.3 °F 42% 30.21 in 10.0 mi WNW 9.2 mph 17.3 mph N/A   Clear
1:55 PM -6.0 °F -25.5 °F -24.0 °F 42% 30.22 in 10.0 mi West 12.7 mph 23.0 mph N/A   Clear
2:15 PM -5.8 °F -25.2 °F -24.3 °F 41% 30.22 in 10.0 mi West 12.7 mph 18.4 mph N/A   Clear
2:35 PM -5.8 °F -26.0 °F -24.2 °F 41% 30.23 in 10.0 mi West 13.8 mph 19.6 mph N/A   Clear
2:55 PM -5.6 °F -24.1 °F -24.2 °F 41% 30.23 in 10.0 mi West 11.5 mph 17.3 mph N/A   Clear
3:15 PM -5.8 °F -24.4 °F -24.7 °F 40% 30.24 in 10.0 mi West 11.5 mph 20.7 mph N/A   Clear
3:35 PM -5.4 °F -24.8 °F -24.7 °F 39% 30.25 in 10.0 mi West 12.7 mph 20.7 mph N/A   Clear
3:55 PM -5.4 °F -21.9 °F -24.0 °F 41% 30.25 in 10.0 mi West 9.2 mph - N/A   Clear
4:15 PM -5.8 °F -22.4 °F -24.2 °F 41% 30.26 in 10.0 mi West 9.2 mph - N/A   Clear
4:35 PM -5.8 °F -24.4 °F -24.7 °F 40% 30.26 in 10.0 mi West 11.5 mph 18.4 mph N/A   Clear
4:55 PM -6.3 °F -21.9 °F -24.2 °F 42% 30.27 in 10.0 mi West 8.1 mph - N/A   Clear
5:15 PM -6.9 °F -21.2 °F -24.3 °F 43% 30.28 in 10.0 mi West 6.9 mph - N/A   Clear
5:35 PM -7.2 °F -23.0 °F -24.0 °F 44% 30.28 in 10.0 mi West 8.1 mph - N/A   Clear
5:55 PM -7.6 °F -25.7 °F -23.8 °F 45% 30.29 in 10.0 mi WSW 10.4 mph - N/A   Clear
6:15 PM -7.6 °F -24.6 °F -24.0 °F 45% 30.29 in 10.0 mi West 9.2 mph - N/A   Clear
6:35 PM -7.6 °F -25.7 °F -23.8 °F 45% 30.30 in 10.0 mi West 10.4 mph 16.1 mph N/A   Clear
6:55 PM -7.8 °F -19.0 °F -23.8 °F 46% 30.30 in 10.0 mi West 4.6 mph - N/A   Clear
7:15 PM -8.0 °F -23.9 °F -23.8 °F 46% 30.31 in 10.0 mi West 8.1 mph - N/A   Clear
7:35 PM -8.5 °F -23.2 °F -23.8 °F 47% 30.31 in 10.0 mi West 6.9 mph - N/A   Clear
7:55 PM -8.5 °F -24.5 °F -23.8 °F 47% 30.31 in 10.0 mi West 8.1 mph - N/A   Clear
8:15 PM -8.7 °F -25.9 °F -23.6 °F 48% 30.31 in 10.0 mi West 9.2 mph 17.3 mph N/A   Clear
8:35 PM -8.7 °F -24.7 °F -23.4 °F 49% 30.32 in 10.0 mi West 8.1 mph 16.1 mph N/A   Clear
8:55 PM -8.9 °F -22.1 °F -23.4 °F 49% 30.33 in 10.0 mi West 5.8 mph - N/A   Clear
9:15 PM -9.4 °F -25.6 °F -23.6 °F 50% 30.33 in 10.0 mi WSW 8.1 mph - N/A   Clear
9:35 PM -9.4 °F -25.6 °F -23.8 °F 49% 30.34 in 10.0 mi WSW 8.1 mph - N/A   Clear
9:55 PM -9.9 °F -24.9 °F -23.8 °F 51% 30.34 in 10.0 mi West 6.9 mph - N/A   Clear
10:15 PM -11.2 °F -29.0 °F -23.8 °F 54% 30.35 in 10.0 mi WSW 9.2 mph - N/A   Clear
10:35 PM -10.7 °F -25.8 °F -23.8 °F 52% 30.34 in 10.0 mi WSW 6.9 mph - N/A   Clear
10:55 PM -11.4 °F -28.0 °F -23.8 °F 54% 30.34 in 10.0 mi WSW 8.1 mph - N/A   Clear
11:15 PM -11.7 °F -25.5 °F -24.0 °F 55% 30.34 in 10.0 mi West 5.8 mph - N/A   Clear
11:35 PM -12.3 °F -27.7 °F -24.3 °F 55% 30.34 in 10.0 mi WSW 6.9 mph - N/A   Clear
11:55 PM -13.0 °F -28.6 °F -24.5 °F 57% 30.34 in 10.0 mi WSW 6.9 mph - N/A   Clear